Flag for Saudi Arabia Weather past 2 weeks in Jeddah, Saudi Arabia

Now
102 °F

Sunny.


Feels Like: 106 °F
Forecast: 86 / 99 °F
Wind: 12 mph from West

Location: Jeddah King Abdul Aziz International Airport

Current Time: Aug 2, 2015 at 2:22:53 PM

Latest Report: Aug 2, 2015 at 2:00 PM


Visibility: 10 mi

Pressure: 29.65 "Hg

Humidity: 29%

Dew point: 64 °F

Location of JeddahLocation

Historic Weather in Jeddah — Graph

°F

Jeddah temperature yesterday

Maximum temperature yesterday: 106 °F (at 2:00 PM)
Minimum temperature yesterday: 90 °F (at 5:00 AM)
Average temperature yesterday: 97 °F

Past Weeks' High & Low Weather Summary

 TemperatureHumidityPressure
High109 °F (Jul 26, 1:00 PM)89% (Jul 28, 5:00 AM)29.71 "Hg (Jul 28, 5:00 AM)
Low79 °F (Jul 20, 6:00 AM)8% (Jul 23, 3:00 PM)29.50 "Hg (Aug 1, 6:00 PM)
Average94 °F41%29.60 "Hg
* Reported Jul 18 1:00 PM — Aug 2 1:00 PM, Jeddah, Weather by CustomWeather, © 2015

Note: Actual official high and low records may vary slightly from our data, if they occured in-between our weather recording intervals... More about our weather records

Advertising

Jeddah weather history for previous 24 hours

 ConditionsComfort  
Time TempWeatherWind HumidityBarometerVisibility
1:00 PM
Sun, Aug 2
104 °FSunny.18 mph29%29.65 "Hg10 mi
12:00 PM106 °FPassing clouds.14 mph26%29.65 "HgN/A
11:00 AM102 °FPassing clouds.12 mph29%29.68 "HgN/A
10:00 AM99 °FPassing clouds.5 mph37%29.68 "HgN/A
9:00 AM95 °FScattered clouds.5 mph47%29.65 "HgN/A
8:00 AM91 °FScattered clouds.5 mph59%29.65 "HgN/A
7:00 AM90 °FScattered clouds.No wind55%29.65 "HgN/A
6:00 AM90 °FScattered clouds.9 mph52%29.62 "HgN/A
5:00 AM90 °FPassing clouds.9 mph46%29.59 "HgN/A
4:00 AM91 °FPassing clouds.14 mph32%29.62 "HgN/A
3:00 AM99 °FPassing clouds.12 mph22%29.56 "HgN/A
2:00 AM100 °FPassing clouds.No wind20%29.56 "HgN/A
1:00 AM100 °FPassing clouds.No wind20%29.59 "HgN/A
12:00 AM99 °FPassing clouds.14 mph25%29.56 "HgN/A
11:00 PM
Sat, Aug 1
95 °FPassing clouds.9 mph34%29.59 "HgN/A
10:00 PM97 °FClear.6 mph34%29.62 "Hg10 mi
9:00 PM97 °FClear.8 mph37%29.62 "Hg10 mi
8:00 PM95 °FClear.10 mph41%29.56 "Hg10 mi
7:00 PM97 °FSunny.14 mph34%29.53 "Hg10 mi
6:00 PM100 °FSunny.16 mph25%29.50 "Hg10 mi
5:00 PM106 °FSunny.20 mph22%29.53 "Hg10 mi
4:00 PM104 °FSunny.17 mph26%29.53 "Hg10 mi
3:00 PM102 °FSunny.17 mph35%29.53 "Hg10 mi
2:00 PM106 °FSunny.21 mph26%29.53 "Hg10 mi
Weather by CustomWeather, © 2015

See weather overviewHow to use our weather pages